Погода в Сыне

Россия / Республика Коми     65°22′16″N   58°02′22″E
темп.,
°C
ветер,
м/с
пор.,
м/с
влажн.,
%
обл.,
%
осадки,
мм/ч
давл.,
гПа
погр.,
м
14 мая, пт
пт1400:00+13ю410790 0.0 1014180
03:00+12ююз310805 0.0 1014194
06:00+15зюз26679 0.0 1013264
09:00+19з235257 0.0 1013685
12:00+21зсз2442100 0.0 10131201
15:00+22ссз2338100 0.0 10111465
18:00+17ю1165100 0.3 101234
21:00+14св1281100 0.3 101243
15 мая, сб
сб1500:00+10ссв3586100 2.2 1012202
03:00+9св4890100 7.6 1012294
06:00+8ссв4886100 0.1 1013355
09:00+9ссв3478100 0.1 1014459
12:00+7св358183 0.0 1016399
15:00+7св3479100 0.1 1016494
18:00+6св458376 0.0 1016382
21:00+4св259263 0.0 1016245
16 мая, вс
вс1600:00+4св239189 0.0 1016186
03:00+4ссв2391100 0.0 1016170
06:00+5св2386100 0.0 1016216
09:00+8всв2277100 0.0 1016348
12:00+10всв2272100 0.0 1014537
15:00+11св2272100 0.0 1013427
18:00+8ссв3582100 0.7 1012294
21:00+6св3791100 1.8 1011226
17 мая, пн
пн1700:00+6ссв3894100 0.8 1010237
03:00+6ссв3795100 1.3 1010214
06:00+5св4890100 0.7 1009252
09:00+6ссв4786100 0.8 1011334
12:00+5св3890100 1.5 1011312
15:00+7ссв3881100 4.2 1012465
18:00+8ссв4873100 0.1 1013518
21:00+6ссв4978100 0.1 1014381
18 мая, вт
вт1800:00+5ссв41079100 0.0 1015423
03:00+4ссв39795 0.0 1018394
06:00+6ссв36652 0.0 1019501
09:00+9ссв345162 0.0 1020961
12:00+10с3339100 0.0 10211325
15:00+11с22335 0.0 10221343
18:00+10ссз223228 0.0 1022983
21:00+6с1148100 0.0 102310